Snowfall_Accumulation
1.7 4.1 6.2 2.6 1.9 2.4 2.9 3.6 3.7 1.8 0.4 1.0 1.4 1.1 0.3 0.1 0.1 0.4 0.1 0.1 0.1 0.1 0.1 0.0 0.0 0.0 0.0 0.0 0.0 0.0 0.0 0.0 0.0 0.0 0.0 0.0 0.0 0.0 0.0 0.0 0.0 0.0 0.0 0.0
5.1 5.9 1.6 0.6 1.3 2.5 3.8 4.7 4.2 1.9 0.6 1.9 2.0 1.8 0.4 0.4 0.3 0.2 0.2 0.2 0.2 0.1 0.0 0.0 0.0 0.0 0.0 0.0 0.0 0.0 0.0 0.0 0.0 0.0 0.0 0.0 0.0 0.0 0.0 0.0 0.0 0.0 0.0 0.0
6.7 3.4 0.6 1.9 3.1 4.0 3.8 3.9 3.5 3.0 1.6 1.1 2.8 3.6 1.3 0.4 0.2 0.3 0.2 0.1 0.2 0.2 0.2 0.1 0.0 0.0 0.0 0.0 0.0 0.0 0.0 0.0 0.0 0.0 0.0 0.0 0.0 0.0 0.0 0.0 0.0 0.0 0.0 0.0
4.6 1.7 0.9 3.3 4.0 3.9 4.8 1.3 1.8 2.9 4.9 5.8 4.7 8.6 3.3 1.3 0.8 0.5 0.4 0.5 0.5 0.2 0.2 0.2 0.2 0.1 0.1 0.1 0.0 0.0 0.0 0.0 0.0 0.0 0.0 0.0 0.0 0.1 0.0 0.0 0.0 0.0 0.0 0.0
5.9 2.2 2.1 3.8 2.9 2.7 3.0 0.8 1.5 3.0 6.5 7.8 4.8 8.8 4.3 1.8 1.9 1.5 1.3 0.6 0.6 0.4 0.4 0.3 0.3 0.3 0.2 0.1 0.1 0.0 0.0 0.0 0.0 0.0 0.0 0.1 0.1 0.1 0.0 0.0 0.0 0.0 0.0 0.0
3.3 1.4 2.5 2.7 1.0 1.1 1.5 1.7 2.2 4.1 8.4 17.0 5.7 6.6 5.3 4.0 4.3 2.7 1.5 0.8 0.8 0.5 0.4 0.6 0.4 0.4 0.2 0.2 0.1 0.1 0.1 0.1 0.0 0.0 0.0 0.1 0.2 0.1 0.1 0.1 0.0 0.0 0.0 0.0
6.9 3.2 1.9 1.4 3.8 3.0 5.0 13.1 24.8 26.2 26.1 14.8 2.8 4.5 5.4 4.1 3.2 3.2 2.6 1.4 0.9 0.8 1.0 0.9 0.8 0.4 0.4 0.3 0.1 0.1 0.1 0.1 0.1 0.1 0.1 0.1 0.1 0.1 0.1 0.2 0.2 0.1 0.2 0.2
9.7 7.9 3.1 2.2 3.9 6.4 6.6 10.9 19.6 18.8 12.9 6.4 3.0 4.1 4.7 3.6 2.7 2.4 2.3 1.7 1.1 1.0 0.9 0.9 0.8 0.6 0.5 0.4 0.3 0.2 0.1 0.1 0.1 0.0 0.0 0.0 0.0 0.1 0.1 0.2 0.2 0.3 0.2 0.1
10.4 7.2 2.1 1.7 1.9 3.7 8.2 10.5 7.7 13.1 9.5 6.7 4.9 3.3 3.1 2.5 2.5 2.1 2.2 1.9 1.7 1.2 1.0 1.0 0.9 0.8 0.6 0.5 0.4 0.2 0.2 0.2 0.1 0.1 0.1 0.0 0.0 0.0 0.0 0.2 0.4 0.4 0.4 0.2
10.5 10.1 3.6 1.7 2.2 2.3 4.2 6.7 10.7 18.8 15.9 8.8 4.7 3.3 4.2 3.6 3.2 2.5 2.3 2.5 2.3 1.7 1.4 1.1 1.0 1.1 0.9 0.8 0.6 0.3 0.3 0.2 0.1 0.1 0.2 0.2 0.1 0.0 0.2 0.2 0.4 0.3 0.4 0.3
9.2 12.5 8.0 4.4 6.6 7.1 6.3 8.3 11.9 15.5 13.5 10.8 6.6 4.9 4.5 4.1 3.8 3.8 3.2 3.2 3.5 3.1 1.9 1.6 1.6 1.2 0.9 0.8 0.5 0.4 0.3 0.2 0.3 0.1 0.1 0.2 0.3 0.3 0.3 0.3 0.3 0.2 0.2 0.1
8.6 13.2 11.8 6.1 2.8 2.7 5.2 7.2 9.7 16.5 13.2 8.6 7.5 5.0 3.2 3.3 3.5 3.6 3.5 3.5 3.1 3.3 2.7 1.6 1.7 1.3 1.0 0.8 0.7 0.7 0.5 0.4 0.4 0.4 0.3 0.4 0.3 0.3 0.2 0.3 0.2 0.1 0.2 0.1
14.8 20.2 18.8 10.1 5.7 4.4 7.2 6.6 7.6 10.1 11.5 9.3 8.0 4.7 2.2 1.9 2.1 2.5 3.1 3.5 3.4 3.3 3.0 1.9 1.6 1.5 1.8 1.2 1.1 0.9 0.7 0.5 0.4 0.4 0.3 0.4 0.4 0.4 0.4 0.3 0.3 0.1 0.1 0.2
14.5 23.7 15.8 12.6 9.3 8.9 9.0 6.9 6.5 10.9 14.9 8.5 4.6 4.1 2.7 2.1 2.1 2.7 3.1 3.6 3.9 3.4 3.5 3.1 2.3 2.3 1.9 1.7 1.2 1.2 0.7 0.6 0.5 0.5 0.5 0.3 0.3 0.3 0.2 0.3 0.4 0.3 0.1 0.6
15.9 20.7 8.8 4.5 3.7 5.2 5.8 5.2 5.5 8.0 8.1 7.6 4.0 3.6 3.8 3.9 3.7 3.9 4.0 3.9 3.8 3.8 3.9 3.5 3.4 2.8 2.9 2.4 1.6 1.2 1.0 0.9 0.6 0.5 0.7 0.4 0.3 0.4 0.3 0.3 0.4 0.4 0.6 0.7
15.9 18.2 9.4 5.3 2.8 4.0 4.9 3.9 4.1 4.6 4.3 4.5 3.2 3.2 2.8 3.2 3.4 3.6 3.7 4.1 4.4 4.5 4.1 3.8 3.2 3.3 3.0 3.3 2.7 1.8 1.7 1.4 1.1 1.1 1.1 0.7 0.7 0.6 0.7 0.7 0.6 0.9 1.0 1.3
16.8 17.0 15.7 9.7 3.9 7.2 9.3 5.4 4.9 4.8 4.6 4.9 5.5 4.4 3.0 3.0 3.5 4.4 4.6 4.4 4.9 5.1 5.1 4.3 3.5 3.5 3.6 3.3 3.1 2.7 2.6 2.0 1.9 2.0 1.6 1.4 1.3 1.2 1.3 1.2 1.2 1.6 1.6 1.7
13.6 15.7 20.0 15.5 11.5 15.4 7.2 4.1 4.0 4.9 5.5 5.3 5.1 4.3 3.9 4.1 4.2 4.3 4.9 5.4 5.2 5.0 4.8 4.6 4.3 3.4 3.6 3.4 3.1 3.0 2.5 2.3 2.3 2.3 2.1 1.9 1.9 2.0 1.9 1.8 1.9 1.8 1.9 2.0
6.7 14.7 23.2 21.6 16.8 9.3 4.3 3.8 5.5 6.4 6.6 5.7 5.1 3.9 3.4 3.5 3.4 3.5 4.3 5.5 6.4 6.0 5.2 4.8 4.4 3.9 3.2 2.9 3.2 2.9 3.1 3.2 3.1 3.0 2.5 2.5 2.5 2.5 2.5 2.7 2.6 2.6 2.7 2.6
6.8 12.7 24.0 23.4 18.4 9.7 5.3 3.5 3.8 5.1 7.5 5.1 5.1 5.1 4.3 4.2 5.0 5.1 4.7 5.4 5.8 5.1 5.0 4.9 3.9 3.4 2.8 2.9 2.9 2.9 3.3 3.2 3.5 3.6 3.0 2.9 2.8 2.7 2.8 2.8 2.8 2.5 2.8 3.1
11.6 18.5 22.9 18.6 16.0 7.6 4.7 3.5 3.2 7.3 8.9 5.0 5.3 5.9 5.7 6.2 6.7 5.8 4.7 4.6 4.9 4.8 4.8 4.3 3.9 3.5 3.1 2.8 2.8 3.1 3.3 3.6 3.5 3.1 2.7 2.7 2.7 2.9 2.9 2.8 2.9 2.7 2.8 2.7
8.6 12.6 13.0 12.5 15.4 9.1 4.5 4.3 7.2 8.8 5.8 5.1 5.2 5.2 5.8 5.4 4.9 4.4 4.3 4.3 4.2 4.2 4.4 4.4 4.3 3.9 3.4 3.2 3.1 3.5 3.5 3.3 2.9 2.5 2.5 2.8 2.7 2.5 2.4 2.7 2.9 2.8 2.7 2.9
6.8 8.7 9.4 8.9 7.8 5.5 5.3 6.5 6.7 5.9 6.0 5.0 5.2 4.9 5.3 5.7 5.4 4.9 4.0 4.0 4.0 4.1 4.3 4.2 4.0 3.4 3.3 3.2 2.8 3.7 3.3 2.8 2.6 2.8 2.8 2.9 2.6 2.5 2.4 2.7 2.9 2.8 2.6 3.3
4.9 4.5 6.4 6.6 4.6 4.0 3.9 4.2 4.3 4.4 5.3 4.8 5.0 5.2 5.4 5.7 5.3 4.6 4.1 3.9 3.9 3.8 4.1 3.8 3.6 3.7 3.7 3.6 2.7 3.2 3.0 2.6 2.9 3.0 2.7 2.7 2.8 2.6 2.2 2.3 2.3 2.9 3.4 4.5
4.8 4.3 5.3 5.5 3.9 3.3 2.9 2.9 3.1 3.5 3.5 3.6 3.9 4.5 4.9 5.1 4.7 4.3 4.2 3.8 3.8 4.1 3.8 3.9 3.9 3.9 4.1 3.8 3.1 2.7 2.8 3.1 3.5 3.0 2.6 2.4 2.7 2.8 2.4 2.3 2.4 3.4 3.9 5.9
4.3 5.2 6.3 5.9 4.1 5.0 3.9 3.0 2.8 3.1 3.2 3.3 3.7 3.8 3.8 4.0 3.9 3.6 3.7 3.7 3.8 3.5 3.6 3.5 3.4 3.4 3.5 3.5 3.4 2.8 3.0 3.5 3.8 3.3 2.8 2.7 2.8 2.8 2.6 2.6 2.9 2.4 2.9 3.3